GW0458 Weather Reports


time (UTC)temp
F
wind
direction
speed
knots
gust
knots
rain 1hr
in
rain 24hr
in
rain mn
in
humidity
%
barometer
mb
20260901203915 64 186 1.7 2.6 0.00 0.00 0.00 83 1018.1
20260901200913 65 225 2.6 4.3 0.00 0.00 0.00 82 1018.1
20260901193910 64 200 2.6 2.6 0.00 0.00 0.00 82 1018.2
20260901190910 64 157 2.6 2.6 0.00 0.00 0.00 83 1018.5
20260901183910 64 192 0.9 0.9 0.00 0.00 0.00 83 1018.6
20260901180906 63 200 0.0 0.9 0.00 0.00 0.00 85 1018.5
20260901173904 62 199 0.0 0.0 0.00 0.00 0.00 88 1018.3
20260901170902 61 200 0.0 0.0 0.00 0.00 0.00 89 1018.3
20260901163900 59 190 0.9 0.9 0.00 0.00 0.00 93 1018.1
20260901160855 58 190 0.9 1.7 0.00 0.00 0.00 94 1018.5
20260901153854 58 186 1.7 1.7 0.00 0.00 0.00 96 1018.6
20260901150854 57 186 0.9 0.9 0.00 0.00 0.00 97 1018.6
20260901143853 55 202 0.0 0.0 0.00 0.00 0.00 99 1018.3
20260901140851 55 209 0.0 0.0 0.00 0.00 0.00 99 1018.0
20260901133848 53 198 0.0 0.0 0.00 0.00 0.00 99 1018.0
20260901130847 54 189 0.9 0.9 0.00 0.00 0.00 99 1017.9
20260901123846 55 192 0.9 0.9 0.00 0.00 0.00 99 1017.8
20260901120842 55 199 0.0 0.0 0.00 0.00 0.00 99 1017.4
20260901113841 54 203 0.0 0.0 0.00 0.00 0.00 99 1016.9
20260901110839 54 201 0.0 0.0 0.00 0.00 0.00 99 1017.2
20260901103836 55 198 0.0 0.0 0.00 0.00 0.00 99 1017.0
20260901100832 55 196 0.0 0.0 0.00 0.00 0.00 99 1016.7
20260901093831 55 193 0.0 0.0 0.00 0.00 0.00 99 1016.3
20260901090830 56 194 0.0 0.9 0.00 0.00 0.00 97 1016.5
20260901083826 58 199 0.0 0.0 0.00 0.00 0.00 96 1016.4
20260901080822 58 201 0.0 0.0 0.00 0.00 0.00 94 1016.0
20260901073820 59 200 0.0 0.0 0.00 0.00 0.00 90 1016.3
20260901070821 60 197 0.0 0.0 0.00 0.00 0.00 88 1016.1
20260901063817 61 201 0.0 0.0 0.00 0.00 0.00 85 1016.1
20260901060813 62 205 0.0 0.0 0.00 0.00 0.00 82 1016.2
20260901053812 63 209 0.9 1.7 0.00 0.00 0.00 81 1016.1
20260901050810 64 197 0.0 0.9 0.00 0.00 0.00 79 1016.3
20260901043806 65 197 0.0 0.0 0.00 0.00 0.00 79 1016.2
20260901040804 66 203 0.0 0.0 0.00 0.00 0.00 77 1016.4
20260901033801 66 208 0.0 0.0 0.00 0.00 0.00 75 1016.2
20260901030802 68 211 0.0 0.0 0.00 0.00 0.00 73 1015.7
20260901023800 69 199 0.0 0.0 0.00 0.00 0.00 70 1015.7
20260901020756 70 225 0.9 0.9 0.00 0.00 0.00 69 1015.9
20260901013756 71 194 0.9 0.9 0.00 0.00 0.00 66 1015.8
20260901010755 72 212 0.0 0.9 0.00 0.00 0.00 64 1015.8
20260901003750 74 221 0.0 0.9 0.00 0.00 0.00 63 1015.7
20260901000748 76 237 1.7 1.7 0.00 0.00 0.00 57 1015.6
20260831233744 77 283 1.7 1.7 0.00 0.00 0.00 55 1016.2
20260831230741 76 209 1.7 1.7 0.00 0.00 0.00 58 1016.4
20260831223740 76 272 1.7 2.6 0.00 0.00 0.00 56 1016.9
20260831220736 77 261 1.7 1.7 0.00 0.00 0.00 55 1017.1
20260831213735 78 236 0.9 1.7 0.00 0.00 0.00 55 1017.3
20260831210734 77 224 0.9 1.7 0.00 0.00 0.00 55 1017.6